Location: Beaver Meadows
(40.3729°N, 105.6140°W)
Time: 03:26:40
(UTC-06:00)

Iridium 67 - Visible Passes

Search period start: 16 September 2014 00:00
Search period end: 26 September 2014 00:00
Orbit: 776 x 779 km, 86.4° (Epoch: 15 September)

Date Brightness Start Highest point End Pass type
(mag) Time Alt. Az. Time Alt. Az. Time Alt. Az.
16 Sep 6.0 19:43:10 10° SSE 19:47:57 39° E 19:52:46 10° NNE visible
16 Sep 7.8 21:24:45 10° SW 21:28:48 23° WNW 21:32:52 10° NNW visible
17 Sep 6.8 20:50:11 10° SSW 20:55:03 41° W 20:59:58 10° NNW visible
18 Sep 5.7 20:16:16 10° S 20:21:27 77° W 20:26:40 10° N visible
19 Sep 5.6 19:42:54 10° SSE 19:47:58 57° E 19:53:04 10° N visible
19 Sep 8.4 21:25:58 10° WSW 21:29:05 16° WNW 21:32:13 10° NW visible
20 Sep 8.8 06:14:51 10° NE 06:17:45 15° ENE 06:20:39 10° ESE visible
20 Sep 7.5 20:50:49 10° SW 20:55:16 29° W 20:59:45 10° NNW visible
21 Sep 6.4 20:16:32 10° SSW 20:21:35 53° W 20:26:40 10° N visible
22 Sep 5.5 19:42:51 10° S 19:48:02 84° E 19:53:15 10° N visible
22 Sep 8.8 21:28:17 10° W 21:29:26 11° WNW 21:30:35 10° WNW visible
23 Sep 8.5 06:14:07 10° NNE 06:18:03 21° ENE 06:21:59 10° SE visible
23 Sep 8.2 20:51:45 10° WSW 20:55:32 20° WNW 20:59:20 10° NNW visible
24 Sep 9.1 05:42:27 10° NE 05:44:10 12° ENE 05:45:53 10° E visible
24 Sep 7.2 20:17:01 10° SSW 20:21:46 36° W 20:26:33 10° NNW visible
25 Sep 6.0 19:42:59 10° S 19:48:08 68° W 19:53:19 10° N visible
